This demonstration page uses our WeatherBlox Daily Observations layout. Learn more.

Left ArrowRight Arrow

Hourly Observations for November 22, 2018

Temp ( °F °C ) Dew Point ( °F °C ) Humidity (%) Winds ( mph kmh ) Pressure ( in mb ) Visibility ( mi km ) Precip ( " mm )
12:53 am 00:53 Clear with Mist and Fog 29 -1.7 25 -3.9 85 85 N N/A 30.40 1029 5 8 N/A
1:53 am 01:53 Clear with Mist and Fog 27 -2.8 24 -4.4 89 89 N N/A 30.40 1029 6 10 N/A
2:53 am 02:53 Cloudy with Mist and Fog 29 -1.7 25 -3.9 85 85 N N/A 30.41 1030 4 6 N/A
3:53 am 03:53 Partly Cloudy with Mist and Fog 28 -2.2 25 -3.9 88 88 N N/A 30.42 1030 5 8 N/A
4:53 am 04:53 Clear with Mist and Fog 27 -2.8 23 -5 85 85 N N/A 30.43 1030 5 8 N/A
5:53 am 05:53 Hazy 27 -2.8 22 -5.6 81 81 N N/A 30.44 1031 4 6 N/A
6:53 am 06:53 Hazy 27 -2.8 22 -5.6 81 81 N N/A 30.45 1031 4 6 N/A
7:53 am 07:53 Sunny with Mist and Fog 26 -3.3 22 -5.6 84 84 N N/A 30.47 1032 4 6 N/A
8:53 am 08:53 Mostly Cloudy with Mist and Fog 31 -0.6 29 -1.7 92 92 N N/A 30.48 1032 5 8 N/A
9:53 am 09:53 Sunny 35 1.7 30 -1.1 82 82 E 9 15 30.48 1032 8 13 N/A
10:53 am 10:53 Mostly Cloudy 38 3.3 31 -0.6 76 76 ESE 7 11 30.48 1032 8 13 N/A
11:53 am 11:53 Mostly Cloudy 40 4.4 31 -0.6 70 70 VRB 3 6 30.46 1032 8 13 N/A
12:53 pm 12:53 Sunny 42 5.6 32 undefined 68 68 ESE 5 7 30.43 1030 8 13 N/A
1:53 pm 13:53 Mostly Sunny 42 5.6 32 undefined 68 68 VRB 6 9 30.41 1030 8 13 N/A
2:53 pm 14:53 Sunny 43 6.1 33 0.6 68 68 E 7 11 30.39 1029 7 11 N/A
3:53 pm 15:53 Sunny 42 5.6 33 0.6 71 71 E 8 13 30.37 1029 7 11 N/A
4:53 pm 16:53 Sunny 40 4.4 32 undefined 73 73 E 8 13 30.37 1028 7 11 N/A
5:53 pm 17:53 Clear 37 2.8 31 -0.6 79 79 E 5 7 30.37 1028 7 11 N/A
6:53 pm 18:53 Clear 36 2.2 30 -1.1 79 79 E 8 13 30.36 1028 7 11 N/A
7:53 pm 19:53 Clear 34 1.1 29 -1.7 82 82 E 7 11 30.37 1029 10 16 N/A
8:53 pm 20:53 Clear 33 0.6 28 -2.2 82 82 E 6 9 30.37 1029 10 16 N/A
9:53 pm 21:53 Clear 31 -0.6 26 -3.3 82 82 E 6 9 30.37 1029 10 16 N/A
10:53 pm 22:53 Clear 31 -0.6 26 -3.3 82 82 E 5 7 30.37 1028 10 16 N/A
11:53 pm 23:53 Clear 30 -1.1 26 -3.3 85 85 E 5 7 30.36 1028 10 16 N/A

Powered by AerisWeather